Location: Newark
(36.0797°N, 3.9744°E)
Time: 23:24:01
(UTC+00:00)

Vanguard 2 Rocket - Pass Details

Date: 10 December 2019
Orbit: 554 x 3326 km, 32.9° (Epoch: 24 January)

Event Time Altitude Azimuth Distance (km) Brightness Sun altitude
Rises 22:33:37 0° 277° (W) 4,325 - -71.0°
Reaches altitude 10° 22:37:25 10° 269° (W) 2,915 - -71.6°
Maximum altitude 22:43:07 31° 209° (SSW) 1,324 - -72.4°
Drops below altitude 10° 22:47:06 10° 145° (SE) 2,006 - -73.0°
Sets 22:49:16 0° 134° (SE) 2,790 - -73.3°
